This is the latest recevied weather packets stored in our database for station/object IW7DVM-13. If no packets are shown the sender has not sent any weather packets the latest 10 day(s).
| Time | Temp. | Humidity | Pressure | Rain* | Wind** | Luminosity | Snow |
|---|---|---|---|---|---|---|---|
| 1787700303 | 29.44° C | 65% | 1008.1 hPa | 0 mm | - | - | - |
| 1787700003 | 29.44° C | 65% | 1008.1 hPa | 0 mm | - | - | - |
| 1787699703 | 29.44° C | 65% | 1008.2 hPa | 0 mm | - | - | - |
| 1787699403 | 29.44° C | 65% | 1008.3 hPa | 0 mm | - | - | - |
| 1787699103 | 28.89° C | 65% | 1008.2 hPa | 0 mm | - | - | - |
| 1787698803 | 28.89° C | 64% | 1008.2 hPa | 0 mm | - | - | - |
| 1787698503 | 28.33° C | 64% | 1008.2 hPa | 0 mm | - | - | - |
| 1787698203 | 28.33° C | 64% | 1008.1 hPa | 0 mm | - | - | - |
| 1787697903 | 28.33° C | 63% | 1008 hPa | 0 mm | - | - | - |
| 1787697603 | 28.33° C | 63% | 1008.1 hPa | 0 mm | - | - | - |
| 1787697303 | 28.33° C | 63% | 1008.1 hPa | 0 mm | - | - | - |
| 1787697003 | 28.33° C | 63% | 1008 hPa | 0 mm | - | - | - |
| 1787696703 | 28.89° C | 63% | 1008.1 hPa | 0 mm | - | - | - |
| 1787696403 | 28.89° C | 62% | 1008 hPa | 0 mm | - | - | - |
| 1787696103 | 29.44° C | 61% | 1008 hPa | 0 mm | - | - | - |
| 1787695803 | 30° C | 60% | 1007.9 hPa | 0 mm | - | - | - |
| 1787695503 | 30° C | 58% | 1007.9 hPa | 0 mm | - | - | - |
| 1787695203 | 30° C | 57% | 1007.7 hPa | 0 mm | - | - | - |
| 1787694903 | 30° C | 59% | 1007.7 hPa | 0 mm | - | - | - |
| 1787694603 | 30° C | 60% | 1007.7 hPa | 0 mm | - | - | - |
| 1787694303 | 30° C | 61% | 1007.7 hPa | 0 mm | - | - | - |
| 1787694003 | 30° C | 62% | 1007.6 hPa | 0 mm | - | - | - |
| 1787693703 | 30° C | 62% | 1007.6 hPa | 0 mm | - | - | - |
| 1787693403 | 30° C | 63% | 1007.6 hPa | 0 mm | - | - | - |
| 1787693103 | 30° C | 63% | 1007.6 hPa | 0 mm | - | - | - |
* Rain latest hour (hover to see other rain measurements)
** Current wind speed in m/s (hover to see current wind gust speed)